[Date Prev][Date Next][Thread Prev][Thread Next][Date Index][Thread Index]

[jamsat-news:1578] jas2info #240



========================   最新情報   ==============================

        Last updated :SAT.01SEP2001  11:00(JST)   #240
        
====================================================================
   
  1)アマチュア通信衛星情報、FOシリーズの軌道要素、テレメトリ、QSOの
   状況等をまとめてみました.
   
   FO−29の2001年9月1日(土)の9:16(JST)のパスでは
  JARLのホームページのとうりアナログ運用でした。 今日までの観測した
  テレメトリーと最終の分析結果を掲載しておきます.

AS24891C   01SEP2001
9:26-9:32(JST)
FREQ.435.794-.789MHz

                                                            9D 9C 99 98 99 
HI HI AE C7 88 55 00 D4 00 00 09 00 6C 3B 7E 65 9E 9B B0 84 9D 9C 99 98 99  
HI HI AE C7 88 55 00 D4 00 00 09 00 55 39 7E 65 9E 9B B0 84 9D 9C 99 98 99 
HI HI AE C7 88 55 00 D4 00 00 09 00 54 29 7E 65 B0 82 B0 7F 9D 9C 99 99 99
HI HI AE C7 88 55 00 D4 00 00 09 00 5B 26 7D 65 9E 9C B0 7B 9D 9C 99 99 99 
HI HI AE C7 88 55 00 D4 00 00 09 00 51 27 7D 65 9E 9B B0 76 9D 9C 98 99 99 
HI HI AE C7 8O 55 00 D4 00 00 09 00 46 2C 7E 65 9F 9B B0 78 9D 9B 98 99 99 
HI HI AE C7 88 55 00 D4 00 00 09 00 3B 35 7C 65 9E 9B B0 79 9D 9B 98 99 99 

AS24883C    31AUG2001
19:42-19:53(JST)
FREQ.435.803-.786Mhz
 
HI HI AE C7 88 55 00 D4 C5 77 09 52 63 93 60 64 9E 9B B0 6C 98 95 99 9A 96 
HI HI AE C7 88 55 00 D4 C5 77 09 52 68 94 5E 64 9E 9B B0 7D 98 94 99 99 96 
HI HI AE C7 88 55 00 D4 C5 77 09 52 6C 94 5B 65 9E 9B B0 50 98 94 99 9A 96 
HI HI AE C7 88 55 00 D4 C5 77 O9 52 70 95 56 65 9E 9B B0 9F 98 84 98 9A 96 
HI HI AE C7 88 55 00 D4 C5 77 09 7D 73 95 54 65 9D 9B 60 6E 98 94 98 9A 96 
HI HI AE C7 88 55 00 D4 24 D1 09 7D 77 94 59 64 9E 9B B0 80 98 94 98 9A 96 
HI HI AE C7 88 55 00 D4 24 D1 09 7D 78 94 56 64 9E 9B B0 6C 98 94 98 9A 96 
HI HI AE C7 88 55 00 D4 24 D1 09 7D          64 9D 9B B0 75 98 93 98 9A 96 
HI HI AE C7 88 55 00 D4 24 D1 09 7D 79 94 5B 64 9D 9B B0 8B 98 93 98 9A 96 
HI HI AE C7 88 55 00 D4 24 D1 09 7D 7A 93 5A 64 9E 9B B0 6F 98 93 98 9A 96 
HI HI AE C7 88 55 00 D4 24 D1 09 7D 7A 92 52 64 9D 9B B0 71 98 93 98 9A 96 
HI HI AE C7 88 55 00 D4 24 D1 09 7D 7A 91    64 9D 9B B0 8E 98 93 98 9A 96 

AS24864C1  30AUG2001
9:21-9:36(JST)
FREQ.435.802-789MHz

HI HI AE C7 88 55 00 D4 94 AA 09 45 41 81 65 64 9D 9A B0 70 98 96 9A 9A 97 
HI HI AE C7 88 55 00 D4 94 AA 09 45 3D 7A 67 64 9D 9A B9 60 97 96 9A 9A 97
HI HI AE C7 88 55 00 D4 94 AA 09 45 3D 72 66 64 9D 9A B0 6B 98 96 9A 9B 97 
HI HI AE C7 88 55 00 D4 94 AA 09 45 3D 6B 68 64 9D 9B B0 6C 98 95 9A 9B 97 
HI HI AE C7 8C 55 00 D5 94 AA 09 45 3F 65 68 64 9E 9B B0 6E 98 95 9A 9B 97 
HI HI AE C7 88 55 00 D4 94 AA 09 45 42 60 69 64 9E 9B B0 76 98 95 9A 9B 97 
HI HI AE C7 88 55 00 D4 94 AA 09 45 47 5B 6A 64 9E 9B B0 AB 99 95 9A 9B 97 
HI HI AE C7 88 55 00 D4 94 AA 09 45 4E 58 6A 64 9E 9B B0 78 99 95 9A 9B 97 
HI HI AE C7 88 55 00 D4 94 AA 09 45 55 57 68 64 9E 9B B0 7B 99 95 9A 9B 97 
HI HI AE C7 88 55 00 D4 94 AA 09 45 5E 56 63 64 9E 9B B0 73 99 95 9A 9B 97 
HI HI AE C7 88 55 00 D4 94 AA 09 45 67 58 63 64 9E 9B B0 B5 99 95 9A 9B 97 
HI HI AE C7 88 55 00 D4 94 AA 09 45 7A 5B 61 65 9E 9B B0 78 99 95 9A 9B 97
HI HI AE C7 88 55 00 D4 94 AA 09 45 7B 5F 5D 65 9E 9B B0 C4 99 95 9A 9B 97 
HI HI AE C7 88 55 00 D4 94 AA 09 45 84 6B 59 65 9E 9B B0 74 99 95 9A 9B 97 
HI HI AE C7 88 55 00 D4 94 AA 09 45 8C 68 57 65 9E 9B B0 6C 99 95 9A 9B 97 
HI HI AE C7 88 55 00 D4 94 AA 09 45 94 6A 53 65 9E 9B B0 6C 99 94 9A 9B 97 
HI HI AE C7 88 55 00 D4 94 AA 09 45 9A 73 4F 65 9E 9B B0 73 99 94 9A 9C 97 
HI HI AE C7 88 55 00 D4 94 AA 09 45 A0 78 4E 64 9E 9B B0 61 99 94 9A 9C 97 
HI HI AE C7 88 55 00 D4 94 AA 09 45 A4 7C 4E 65 9E 9B B0 65 99 94 9A 9C 97 
HI HI AE C7 88 55 00 D4 94 AA 09 45 A5 80 4D 65 9E 9B B0 A4 99 94 9A 9C 97 
HI HI AE C7 88 55 00 D4 74 AA 09 45 A9 84 4B 65 9E 9B B0   

AS24856C   29AUG2001
19:47-19:58(JST)
FREQ.435.803-.786MHz

                                                            95 92 9C 9C 97 
HI HI AE C7 88 55 00 D4 37 F4 09 68 6F BA 6B 65 9E 9B B0 75 95 92 9C 9C 97 
HI HI AE C7 88 55 00 D4 37 F4 09 68 79 B7 6A 65 9E 9B B0 69 95 92 9C 9C 97 
HI HI AE C7 88 55 00 D4 37 F4 09 68 82 B1 66 65 9E 9B B0 81 95 92 9C 9C 97 
HI HI AE C7 88 55 09 D4 37 F4 09 68 8B A2 63 65 9E 9B B1 66 95 91 9C 9C 97 
HI HI AE C7 88 55 09 D4 36 F4 09 68 98 A4 5F 65 9E 9B B0 6B 95 91 9C 9C 97 
HI HI AE C7 88 55 00 D4 37 F4 09 68 95 98 60 65 9E 9B B0 8F 95 91 9C 9C 97 
HI HI AE C7 88 55 00 D4 37 F4 09 68 98 90 60 65 9E 9B B0 78 95 91 9C 9C 97 
HI HI AE C7 88 55 00 D4 37 F4 09 68 9A 89 5E 65 9E 9B B0 8B 95 91 9C 9C 97 
HI HI AE 07 88 55 00 D4 37 F4 09 68 9B 83 5E 65 9E 9B B0 5B 95 91 9C 9C 97 
HI HI AE C7 88 55 00 D4 37 F4 09 68 9B 7B 5D 65 9D 9B B0 96 95 92 9C 9C 97 
HI HI AE C7 88 55 00 D4 37 F4 09 68 9B 77 55 65 9E 9B B0 9C 94 92 9C 9C 96 
HI HI AE C7 88 55 00 D4 37 F4 09 68 9A 73 15 80 9E 9B B0 75 94 91 9C 9C 96 
HI HI AE C7 88 55 00 D4 37 F4 09 68 9A 6E 0A 65 9E 9B B0 78 94 92 9C 9C 96 

AS24842C  28AUG2001
9:56-10:05(JST)
FREQ435.802-.789MHz

HI HI AE C7 88 55 00 D4 00 00 09 00 56 29 5C 64 9D 9B B0 8B 98 90 94 9A 94 
HI HI AE C7 88 55 00 D4 00 00 09 00 56 2E 56 64 9E 9B B0 7A 98 90 94 9A 93 
HI HI AE C7 88 55 00 D4 00 00 09 00 54 32 53 64 9D 9B B0 7A 98 90 94 9A 94 
HI HI AE C7 88 55 00 D4 00 00 09 00 51 37 4E 64 9D 9A B0 85 98 90 94 9A 94 
HI HI AE C7 88 55 00 D4 00 00 09 00 4D 3A 48 65 9D 9A AD 80 98 90 94 9A 94 
HI HI AE C7 88 55 00 D4 00 00 09 00 4A 3C 46 66 9C 99 AB 86 98 90 94 9A 94 
HI HI AE C7 88 55 00 D4 00 00 09 00 48 3D 42 67 9A 98 A5 7B 98 90 94 9A 93 
HI HI AE C7 88 55 00 D4 00 00 09 00 47 3D 43 67 99 96 A5 74 98 90 94 99 94 
HI HI AE C7 88 55 00 D4 00 00 09 00 49 3D 47 65 98 96 AA 7A 98 90 94 99 93 
HI HI AE C7 88 55 00 D4 00 00 09 00 4D 3C 4C 64 99 97 AE 7C 98 90 94 99 94 
HI HI AE C7 88 55 00 D4 00 00 09 00 54 3C 4B 64 9A 97 AF 86 99 91 94 99 93 
HI HI AE C7 88 55 00 D4 00 00 09 00 5C 3D 37 6E 98 

AS24829  27AUG2001
19:51-20:02(JST)
FREQ.435.804-.787MHz

HI HI AE C7 88 55 00 D4 E0 09 09 1F 59 24 4B 65 9E 9C B6    95 99 9F 99 98 
HI HI AE C7 88 55 00 D4 E0 09 09 1F 5E 28 4B 65 9E 9B B0 88 95 99 A0 99 98 
HI HI AE C7 88 55 00 D4 E0 09 09 1F 63 2D 4B 65 9E 9E B0 85 95 99 9F 99 98 
HI HI AE C7 88 55 00 D4 E0 09 09 1F 69 32 4B 65 9E 9B B0 67 95 99 9F 99 98 
HI HI AE C7 88 55 00 D4 E0 09 09 1F 6F 39 4A 65 9E 9D B0 70 95 99 9F 99 98 
HI HI AE C7 88 55 00 D4 E0 09 09 1F       4A 65 9E 9B B0 65 95 99 9F 99 98
HI HI AE C7 88 55 00 D4 E0 09 09 1F  A 47 49 65 9E 9B B0 66 95 99 9F 99 98 
HI HI AE C7 88 55 00 D4 E0 09 09          48 65 9E 9B AF 7B 95 99 9F 99 98 
HI HI AE C7 88 55 00 D4 E0 09              8 65 9D 9B AF 79 95 99 9F 99 98 
HI HI AE C7 88 55 00 D4 E0 09 09 1E 89 5F 48 65 9D 9B AF 5D 95 99 9F 99 98  
HI HI AE C7 88 55 00 D4 E0 09 09 1F  D 67 48 65 9E 9B AF 5A 95 99 9F 99 98    
HI HI AE C7 88 55 00 D4 E0 09 09 1F 90 5E 48 65 9D 9D AE 7A 95 99 9F 99 98 
HI HI AE C7 88 S5 00 D4 E0 09 09 1F 9E 64 48 68 9C 9D AF 66 95 99 AO 99 98  
  
------------------------ FO-29の軌道要素 ------------------------------        
 
  ■ 軌道要素1:「jamsat−keps:1027」より         
          SB KEPS @ AMSAT  $ORB01235.N
          2Line Orbital Elements 01235.AMSAT

HR AMSAT ORBITAL ELEMENTS FOR AMATEUR SATELLITES IN NASA FORMAT
FROM WA5QGD FORT WORTH,TX August 23, 2001
SEND SUBSCRIBE/UNSUBSCRIBE TO majordomo@amsat.org ONLY
BID: ORB01235.N

 DECODE 2-LINE ELSETS WITH THE FOLLOWING KEY:
 1 AAAAAU 00  0  0 BBBBB.BBBBBBBB  .CCCCCCCC  00000-0  00000-0 0  DDDZ
 2 AAAAA EEE.EEEE FFF.FFFF GGGGGGG HHH.HHHH III.IIII JJ.JJJJJJJJKKKKKZ
 KEY: A-CATALOGNUM B-EPOCHTIME C-DECAY D-ELSETNUM E-INCLINATION F-RAAN
 G-ECCENTRICITY H-ARGPERIGEE I-MNANOM J-MNMOTION K-ORBITNUM Z-CHECKSUM

FO-29
1 24278U 96046B   01235.50452848 -.00000013  00000-0  22256-4 0  4378
2 24278  98.5293  91.5578 0350722 187.2555 172.3433 13.52779085247742

 ■ 軌道要素2:「jamsat−keps:1028」より
        SB KEPS @ AMSAT  $ORB01235.O
        Orbital Elements  01235.OSCAR

HR AMSAT ORBITAL ELEMENTS FOR OSCAR SATELLITES
FROM WA5QGD FORT WORTH,TX August 23, 2001
SEND SUBSCRIBE/UNSUBSCRIBE TO majordomo@amsat.org ONLY
BID: ORB01235.O
TO ALL RADIO AMATEURS BT
 
Satellite: FO-29
Catalog number: 24278
Epoch time:      01235.50452848
Element set:     437
Inclination:       98.5293 deg
RA of node:        91.5578 deg
Eccentricity:    0.0350722
Arg of perigee:   187.2555 deg
Mean anomaly:     172.3433 deg
Mean motion:   13.52779085 rev/day
Decay rate:       -1.3e-07 rev/day^2
Epoch rev:           24774
Checksum:              328

-------------------  FO-29(JAS-2)のテレメトリに関する情報  ---------------------- 
 
2)上記9月1日(土)のテレメトリの最終行を分析しておきます.

AS24891C   01SEP2001
9:26-9:32(JST)
FREQ.435.794-.789MHz
 
HI HI AE C7 88 55 00 D4 00 00 09 00 3B 35 7C 65 9E 9B B0 79 9D 9B 98 99 99

テレメトリ   内 容       換算算値 単 位
3C	磁気センサーZ軸=	28921.6	[nT]
3D	磁気センサX軸	=	25980.4	[nT]
4A	太陽電池発生電流=	 1215.7	[mA]
4B	B充放電電流	=	  -20.4	[mA]
4C	B端子電圧	=	   17.0	[V]
4D	B中間端子電圧	=	    7.5	[V]
5A	バス電圧	=	   17.3	[V]
5B	JTA送信電力	=	  688.4	[mW]
5C 	構体温度1	=	   20.9	[℃]
5D	構体温度2	=	   21.7	[℃]
6A	構体温度3	=	   22.9	[℃]
6B	構体温度4	=	   22.5	[℃]
6C	Bセル温度	=	   22.5	[℃]

 ========================== FO-29(ふじ3号)のQSO情報等 ======================
   
 3)[jamsat-bb:

 ===============================================================================
   4)JARL のホームページに運用予定が記載されていましたのでご紹介します.
       ( http://www.jarl.or.jp/Japanese/3_Fuji/new/uy.htm )

        ■ ふじ3号/FOー29/JAS-2 ■  
   
     *** 運用予定について ***

 7月2日(月) 〜 10月1日(月)アナログ系運用 


  *なお,運用予定は都合により変更することがありますので予めご了承願います。

 照会先 : lab@jarl.or.jp

 最新の情報はテレホンサービス(03−3942−1000)をお聞きください。  
 以後の運用につきましては平成13年10月上旬にお知らせ致します。
    
-----------------------    FO−20(JAS-1b)道要素   -------------------------
  5)
  ■ 軌道要素1 :出典はFO-29「ふじ3号」に同じ.
  
O-20
1 20480U 90013C   01234.67361360  .00000006  00000-0  80528-4 0 03424
2 20480 099.0553 290.6555 0540470 158.5982 203.8675 12.83296290540627
 
  ■ 軌道要素2 :出典はFO−29「ふじ3号」に同じ.
               
